Back to catalog

METEOR 2-11 DEB

AlivePO
NORAD 42456·DEBRIS·🇷🇺 Russia

Launched Jul 5, 1984 from Plesetsk Cosmodrome

Loading…

Next Passes (next 24 hours)

TLE

FreshSource: Space-Track

Epoch: Sep 14, 2026, 11:07 UTC

1 42456U 84072S   26257.46331903  .00000145  00000-0  93108-4 0  9998
2 42456  82.5424 312.0441 0041204 120.1294 240.3967 13.96221700600113

Track METEOR 2-11 DEB in real time with AllMySat

Download on the App Store